Location: Augustenthal
(51.7167°N, 10.2833°E)
Time: 09:06:57
(UTC+00:00)

Cosmos 1933 Rocket - Pass Details

Date: 18 May 2021
Orbit: 606 x 630 km, 82.5° (Epoch: 15 June)

Event Time Altitude Azimuth Distance (km) Brightness Sun altitude
Rises 19:42:42 0° 348° (NNW) 2,879 7.9 -4.9°
Reaches altitude 10° 19:44:55 10° 348° (NNW) 1,971 7.1 -5.1°
Maximum altitude 19:49:17 84° 260° (W) 619 3.6 -5.6°
Drops below altitude 10° 19:53:37 10° 174° (S) 1,961 5.7 -6.1°
Enters shadow 19:55:40 - 173° (S) 2,794 6.5 -6.3°
